Year,Month,Day,Hour,Minute,Value (Times are PST for temperature in C)
2021,04,11,00,00,1.80
2021,04,11,00,01,1.80
2021,04,11,00,02,1.80
2021,04,11,00,03,1.80
2021,04,11,00,04,1.80
2021,04,11,00,05,1.80
2021,04,11,00,06,1.80
2021,04,11,00,07,1.80
2021,04,11,00,08,1.80
2021,04,11,00,09,1.80
2021,04,11,00,10,1.80
2021,04,11,00,11,1.70
2021,04,11,00,12,1.70
2021,04,11,00,13,1.70
2021,04,11,00,14,1.70
2021,04,11,00,15,1.70
2021,04,11,00,16,1.70
2021,04,11,00,17,1.70
2021,04,11,00,18,1.70
2021,04,11,00,19,1.70
2021,04,11,00,20,1.70
2021,04,11,00,21,1.70
2021,04,11,00,22,1.70
2021,04,11,00,23,1.70
2021,04,11,00,24,1.70
2021,04,11,00,25,1.70
2021,04,11,00,26,1.70
2021,04,11,00,27,1.70
2021,04,11,00,28,1.70
2021,04,11,00,29,1.70
2021,04,11,00,30,1.60
2021,04,11,00,31,1.60
2021,04,11,00,32,1.60
2021,04,11,00,33,1.60
2021,04,11,00,34,1.60
2021,04,11,00,35,1.60
2021,04,11,00,36,1.60
2021,04,11,00,37,1.50
2021,04,11,00,38,1.50
2021,04,11,00,39,1.50
2021,04,11,00,40,1.50
2021,04,11,00,41,1.50
2021,04,11,00,42,1.50
2021,04,11,00,43,1.40
2021,04,11,00,44,1.40
2021,04,11,00,45,1.40
2021,04,11,00,46,1.40
2021,04,11,00,47,1.40
2021,04,11,00,48,1.30
2021,04,11,00,49,1.30
2021,04,11,00,50,1.30
2021,04,11,00,51,1.30
2021,04,11,00,52,1.20
2021,04,11,00,53,1.20
2021,04,11,00,54,1.20
2021,04,11,00,55,1.20
2021,04,11,00,56,1.10
2021,04,11,00,57,1.10
2021,04,11,00,58,1.10
2021,04,11,00,59,1.10
2021,04,11,01,00,1.10
2021,04,11,01,01,1.10
2021,04,11,01,02,1.10
2021,04,11,01,03,1.10
2021,04,11,01,04,1.10
2021,04,11,01,05,1.10
2021,04,11,01,06,1.10
2021,04,11,01,07,1.10
2021,04,11,01,08,1.10
2021,04,11,01,09,1.10
2021,04,11,01,10,1.00
2021,04,11,01,11,1.00
2021,04,11,01,12,1.10
2021,04,11,01,13,1.10
2021,04,11,01,14,1.10
2021,04,11,01,15,1.00
2021,04,11,01,16,1.10
2021,04,11,01,17,1.00
2021,04,11,01,18,1.00
2021,04,11,01,19,1.00
2021,04,11,01,20,1.00
2021,04,11,01,21,1.00
2021,04,11,01,22,1.00
2021,04,11,01,23,1.00
2021,04,11,01,24,1.00
2021,04,11,01,25,1.00
2021,04,11,01,26,1.00
2021,04,11,01,27,0.90
2021,04,11,01,28,0.90
2021,04,11,01,29,0.90
2021,04,11,01,30,0.90
2021,04,11,01,31,0.90
2021,04,11,01,32,0.80
2021,04,11,01,33,0.80
2021,04,11,01,34,0.80
2021,04,11,01,35,0.80
2021,04,11,01,36,0.80
2021,04,11,01,37,0.80
2021,04,11,01,38,0.80
2021,04,11,01,39,0.80
2021,04,11,01,40,0.70
2021,04,11,01,41,0.70
2021,04,11,01,42,0.70
2021,04,11,01,43,0.70
2021,04,11,01,44,0.70
2021,04,11,01,45,0.70
2021,04,11,01,46,0.70
2021,04,11,01,47,0.70
2021,04,11,01,48,0.70
2021,04,11,01,49,0.70
2021,04,11,01,50,0.70
2021,04,11,01,51,0.60
2021,04,11,01,52,0.60
2021,04,11,01,53,0.60
2021,04,11,01,54,0.60
2021,04,11,01,55,0.60
2021,04,11,01,56,0.60
2021,04,11,01,57,0.60
2021,04,11,01,58,0.60
2021,04,11,01,59,0.60
2021,04,11,02,00,0.60
2021,04,11,02,01,0.60
2021,04,11,02,02,0.60
2021,04,11,02,03,0.60
2021,04,11,02,04,0.50
2021,04,11,02,05,0.50
2021,04,11,02,06,0.50
2021,04,11,02,07,0.50
2021,04,11,02,08,0.50
2021,04,11,02,09,0.50
2021,04,11,02,10,0.50
2021,04,11,02,11,0.50
2021,04,11,02,12,0.40
2021,04,11,02,13,0.40
2021,04,11,02,14,0.40
2021,04,11,02,15,0.40
2021,04,11,02,16,0.40
2021,04,11,02,17,0.30
2021,04,11,02,18,0.30
2021,04,11,02,19,0.30
2021,04,11,02,20,0.30
2021,04,11,02,21,0.30
2021,04,11,02,22,0.30
2021,04,11,02,23,0.30
2021,04,11,02,24,0.30
2021,04,11,02,25,0.30
2021,04,11,02,26,0.30
2021,04,11,02,27,0.20
2021,04,11,02,28,0.20
2021,04,11,02,29,0.20
2021,04,11,02,30,0.20
2021,04,11,02,31,0.20
2021,04,11,02,32,0.10
2021,04,11,02,33,0.10
2021,04,11,02,34,0.10
2021,04,11,02,35,0.00
2021,04,11,02,36,0.00
2021,04,11,02,37,0.00
2021,04,11,02,38,0.00
2021,04,11,02,39,-0.10
2021,04,11,02,40,-0.10
2021,04,11,02,41,-0.10
2021,04,11,02,42,-0.10
2021,04,11,02,43,-0.10
2021,04,11,02,44,-0.10
2021,04,11,02,45,0.00
2021,04,11,02,46,0.00
2021,04,11,02,47,0.00
2021,04,11,02,48,0.00
2021,04,11,02,49,0.00
2021,04,11,02,50,0.00
2021,04,11,02,51,0.00
2021,04,11,02,52,0.00
2021,04,11,02,53,0.00
2021,04,11,02,54,0.00
2021,04,11,02,55,0.00
2021,04,11,02,56,0.00
2021,04,11,02,57,0.00
2021,04,11,02,58,0.00
2021,04,11,02,59,-0.10
2021,04,11,03,00,-0.10
2021,04,11,03,01,0.00
2021,04,11,03,02,-0.10
2021,04,11,03,03,-0.10
2021,04,11,03,04,-0.10
2021,04,11,03,05,-0.10
2021,04,11,03,06,-0.10
2021,04,11,03,07,-0.10
2021,04,11,03,08,-0.10
2021,04,11,03,09,-0.10
2021,04,11,03,10,-0.10
2021,04,11,03,11,-0.10
2021,04,11,03,12,-0.10
2021,04,11,03,13,-0.10
2021,04,11,03,14,-0.10
2021,04,11,03,15,-0.10
2021,04,11,03,16,-0.20
2021,04,11,03,17,-0.20
2021,04,11,03,18,-0.20
2021,04,11,03,19,-0.20
2021,04,11,03,20,-0.20
2021,04,11,03,21,-0.20
2021,04,11,03,22,-0.20
2021,04,11,03,23,-0.20
2021,04,11,03,24,-0.20
2021,04,11,03,25,-0.20
2021,04,11,03,26,-0.20
2021,04,11,03,27,-0.20
2021,04,11,03,28,-0.20
2021,04,11,03,29,-0.20
2021,04,11,03,30,-0.30
2021,04,11,03,31,-0.30
2021,04,11,03,32,-0.30
2021,04,11,03,33,-0.30
2021,04,11,03,34,-0.30
2021,04,11,03,35,-0.30
2021,04,11,03,36,-0.30
2021,04,11,03,37,-0.30
2021,04,11,03,38,-0.30
2021,04,11,03,39,-0.30
2021,04,11,03,40,-0.30
2021,04,11,03,41,-0.30
2021,04,11,03,42,-0.30
2021,04,11,03,43,-0.30
2021,04,11,03,44,-0.30
2021,04,11,03,45,-0.30
2021,04,11,03,46,-0.30
2021,04,11,03,47,-0.30
2021,04,11,03,48,-0.40
2021,04,11,03,49,-0.40
2021,04,11,03,50,-0.40
2021,04,11,03,51,-0.40
2021,04,11,03,52,-0.40
2021,04,11,03,53,-0.40
2021,04,11,03,54,-0.50
2021,04,11,03,55,-0.50
2021,04,11,03,56,-0.50
2021,04,11,03,57,-0.50
2021,04,11,03,58,-0.50
2021,04,11,03,59,-0.50
2021,04,11,04,00,-0.50
2021,04,11,04,01,-0.60
2021,04,11,04,02,-0.60
2021,04,11,04,03,-0.60
2021,04,11,04,04,-0.60
2021,04,11,04,05,-0.60
2021,04,11,04,06,-0.70
2021,04,11,04,07,-0.70
2021,04,11,04,08,-0.70
2021,04,11,04,09,-0.70
2021,04,11,04,10,-0.70
2021,04,11,04,11,-0.80
2021,04,11,04,12,-0.80
2021,04,11,04,13,-0.80
2021,04,11,04,14,-0.80
2021,04,11,04,15,-0.80
2021,04,11,04,16,-0.80
2021,04,11,04,17,-0.90
2021,04,11,04,18,-0.90
2021,04,11,04,19,-0.90
2021,04,11,04,20,-0.90
2021,04,11,04,21,-0.90
2021,04,11,04,22,-0.90
2021,04,11,04,23,-0.90
2021,04,11,04,24,-0.90
2021,04,11,04,25,-0.90
2021,04,11,04,26,-0.90
2021,04,11,04,27,-0.90
2021,04,11,04,28,-0.90
2021,04,11,04,29,-0.80
2021,04,11,04,30,-0.80
2021,04,11,04,31,-0.80
2021,04,11,04,32,-0.80
2021,04,11,04,33,-0.80
2021,04,11,04,34,-0.80
2021,04,11,04,35,-0.80
2021,04,11,04,36,-0.80
2021,04,11,04,37,-0.80
2021,04,11,04,38,-0.80
2021,04,11,04,39,-0.80
2021,04,11,04,40,-0.90
2021,04,11,04,41,-0.90
2021,04,11,04,42,-0.90
2021,04,11,04,43,-0.90
2021,04,11,04,44,-0.90
2021,04,11,04,45,-1.00
2021,04,11,04,46,-1.00
2021,04,11,04,47,-1.00
2021,04,11,04,48,-1.10
2021,04,11,04,49,-1.10
2021,04,11,04,50,-1.10
2021,04,11,04,51,-1.10
2021,04,11,04,52,-1.10
2021,04,11,04,53,-1.10
2021,04,11,04,54,-1.20
2021,04,11,04,55,-1.20
2021,04,11,04,56,-1.20
2021,04,11,04,57,-1.20
2021,04,11,04,58,-1.20
2021,04,11,04,59,-1.10
2021,04,11,05,00,-1.10
2021,04,11,05,01,-1.10
2021,04,11,05,02,-1.10
2021,04,11,05,03,-1.10
2021,04,11,05,04,-1.10
2021,04,11,05,05,-1.10
2021,04,11,05,06,-1.10
2021,04,11,05,07,-1.10
2021,04,11,05,08,-1.10
2021,04,11,05,09,-1.00
2021,04,11,05,10,-1.00
2021,04,11,05,11,-1.00
2021,04,11,05,12,-1.00
2021,04,11,05,13,-0.90
2021,04,11,05,14,-0.90
2021,04,11,05,15,-0.90
2021,04,11,05,16,-0.90
2021,04,11,05,17,-0.90
2021,04,11,05,18,-0.90
2021,04,11,05,19,-0.90
2021,04,11,05,20,-0.90
2021,04,11,05,21,-0.90
2021,04,11,05,22,-0.90
2021,04,11,05,23,-0.90
2021,04,11,05,24,-1.00
2021,04,11,05,25,-1.00
2021,04,11,05,26,-1.00
2021,04,11,05,27,-1.10
2021,04,11,05,28,-1.10
2021,04,11,05,29,-1.10
2021,04,11,05,30,-1.10
2021,04,11,05,31,-1.20
2021,04,11,05,32,-1.20
2021,04,11,05,33,-1.20
2021,04,11,05,34,-1.20
2021,04,11,05,35,-1.20
2021,04,11,05,36,-1.30
2021,04,11,05,37,-1.30
2021,04,11,05,38,-1.30
2021,04,11,05,39,-1.30
2021,04,11,05,40,-1.30
2021,04,11,05,41,-1.30
2021,04,11,05,42,-1.40
2021,04,11,05,43,-1.40
2021,04,11,05,44,-1.40
2021,04,11,05,45,-1.40
2021,04,11,05,46,-1.40
2021,04,11,05,47,-1.40
2021,04,11,05,48,-1.40
2021,04,11,05,49,-1.40
2021,04,11,05,50,-1.30
2021,04,11,05,51,-1.30
2021,04,11,05,52,-1.30
2021,04,11,05,53,-1.30
2021,04,11,05,54,-1.30
2021,04,11,05,55,-1.30
2021,04,11,05,56,-1.20
2021,04,11,05,57,-1.20
2021,04,11,05,58,-1.20
2021,04,11,05,59,-1.20
2021,04,11,06,00,-1.30
2021,04,11,06,01,-1.30
2021,04,11,06,02,-1.30
2021,04,11,06,03,-1.30
2021,04,11,06,04,-1.30
2021,04,11,06,05,-1.30
2021,04,11,06,06,-1.30
2021,04,11,06,07,-1.30
2021,04,11,06,08,-1.30
2021,04,11,06,09,-1.30
2021,04,11,06,10,-1.30
2021,04,11,06,11,-1.30
2021,04,11,06,12,-1.30
2021,04,11,06,13,-1.40
2021,04,11,06,14,-1.40
2021,04,11,06,15,-1.40
2021,04,11,06,16,-1.40
2021,04,11,06,17,-1.40
2021,04,11,06,18,-1.40
2021,04,11,06,19,-1.40
2021,04,11,06,20,-1.40
2021,04,11,06,21,-1.40
2021,04,11,06,22,-1.40
2021,04,11,06,23,-1.40
2021,04,11,06,24,-1.50
2021,04,11,06,25,-1.50
2021,04,11,06,26,-1.50
2021,04,11,06,27,-1.50
2021,04,11,06,28,-1.50
2021,04,11,06,29,-1.50
2021,04,11,06,30,-1.50
2021,04,11,06,31,-1.50
2021,04,11,06,32,-1.50
2021,04,11,06,33,-1.50
2021,04,11,06,34,-1.50
2021,04,11,06,35,-1.50
2021,04,11,06,36,-1.50
2021,04,11,06,37,-1.50
2021,04,11,06,38,-1.50
2021,04,11,06,39,-1.50
2021,04,11,06,40,-1.50
2021,04,11,06,41,-1.40
2021,04,11,06,42,-1.40
2021,04,11,06,43,-1.40
2021,04,11,06,44,-1.40
2021,04,11,06,45,-1.40
2021,04,11,06,46,-1.40
2021,04,11,06,47,-1.30
2021,04,11,06,48,-1.30
2021,04,11,06,49,-1.30
2021,04,11,06,50,-1.30
2021,04,11,06,51,-1.30
2021,04,11,06,52,-1.30
2021,04,11,06,53,-1.30
2021,04,11,06,54,-1.30
2021,04,11,06,55,-1.30
2021,04,11,06,56,-1.30
2021,04,11,06,57,-1.30
2021,04,11,06,58,-1.30
2021,04,11,06,59,-1.30
2021,04,11,07,00,-1.30
2021,04,11,07,01,-1.30
2021,04,11,07,02,-1.30
2021,04,11,07,03,-1.30
2021,04,11,07,04,-1.40
2021,04,11,07,05,-1.40
2021,04,11,07,06,-1.40
2021,04,11,07,07,-1.40
2021,04,11,07,08,-1.40
2021,04,11,07,09,-1.40
2021,04,11,07,10,-1.50
2021,04,11,07,11,-1.50
2021,04,11,07,12,-1.50
2021,04,11,07,13,-1.50
2021,04,11,07,14,-1.60
2021,04,11,07,15,-1.60
2021,04,11,07,16,-1.60
2021,04,11,07,17,-1.60
2021,04,11,07,18,-1.60
2021,04,11,07,19,-1.50
2021,04,11,07,20,-1.50
2021,04,11,07,21,-1.50
2021,04,11,07,22,-1.50
2021,04,11,07,23,-1.50
2021,04,11,07,24,-1.50
2021,04,11,07,25,-1.50
2021,04,11,07,26,-1.50
2021,04,11,07,27,-1.50
2021,04,11,07,28,-1.50
2021,04,11,07,29,-1.40
2021,04,11,07,30,-1.40
2021,04,11,07,31,-1.40
2021,04,11,07,32,-1.40
2021,04,11,07,33,-1.30
2021,04,11,07,34,-1.30
2021,04,11,07,35,-1.30
2021,04,11,07,36,-1.30
2021,04,11,07,37,-1.30
2021,04,11,07,38,-1.30
2021,04,11,07,39,-1.30
2021,04,11,07,40,-1.30
2021,04,11,07,41,-1.30
2021,04,11,07,42,-1.30
2021,04,11,07,43,-1.30
2021,04,11,07,44,-1.30
2021,04,11,07,45,-1.30
2021,04,11,07,46,-1.30
2021,04,11,07,47,-1.20
2021,04,11,07,48,-1.20
2021,04,11,07,49,-1.20
2021,04,11,07,50,-1.20
2021,04,11,07,51,-1.10
2021,04,11,07,52,-1.10
2021,04,11,07,53,-1.00
2021,04,11,07,54,-0.90
2021,04,11,07,55,-0.90
2021,04,11,07,56,-0.80
2021,04,11,07,57,-0.70
2021,04,11,07,58,-0.70
2021,04,11,07,59,-0.60
2021,04,11,08,00,-0.60
2021,04,11,08,01,-0.60
2021,04,11,08,02,-0.50
2021,04,11,08,03,-0.50
2021,04,11,08,04,-0.40
2021,04,11,08,05,-0.40
2021,04,11,08,06,-0.30
2021,04,11,08,07,-0.30
2021,04,11,08,08,-0.20
2021,04,11,08,09,-0.20
2021,04,11,08,10,-0.10
2021,04,11,08,11,-0.10
2021,04,11,08,12,-0.10
2021,04,11,08,13,-0.10
2021,04,11,08,14,0.00
2021,04,11,08,15,0.00
2021,04,11,08,16,0.10
2021,04,11,08,17,0.10
2021,04,11,08,18,0.10
2021,04,11,08,19,0.10
2021,04,11,08,20,0.10
2021,04,11,08,21,0.10
2021,04,11,08,22,0.10
2021,04,11,08,23,0.10
2021,04,11,08,24,0.10
2021,04,11,08,25,0.10
2021,04,11,08,26,0.20
2021,04,11,08,27,0.20
2021,04,11,08,28,0.20
2021,04,11,08,29,0.20
2021,04,11,08,30,0.20
2021,04,11,08,31,0.20
2021,04,11,08,32,0.30
2021,04,11,08,33,0.30
2021,04,11,08,34,0.40
2021,04,11,08,35,0.40
2021,04,11,08,36,0.50
2021,04,11,08,37,0.50
2021,04,11,08,38,0.60
2021,04,11,08,39,0.70
2021,04,11,08,40,0.70
2021,04,11,08,41,0.80
2021,04,11,08,42,0.90
2021,04,11,08,43,0.90
2021,04,11,08,44,1.00
2021,04,11,08,45,1.10
2021,04,11,08,46,1.10
2021,04,11,08,47,1.10
2021,04,11,08,48,1.10
2021,04,11,08,49,1.20
2021,04,11,08,50,1.20
2021,04,11,08,51,1.20
2021,04,11,08,52,1.30
2021,04,11,08,53,1.30
2021,04,11,08,54,1.40
2021,04,11,08,55,1.50
2021,04,11,08,56,1.50
2021,04,11,08,57,1.60
2021,04,11,08,58,1.70
2021,04,11,08,59,1.70
2021,04,11,09,00,1.70
2021,04,11,09,01,1.80
2021,04,11,09,02,1.80
2021,04,11,09,03,1.90
2021,04,11,09,04,1.90
2021,04,11,09,05,1.90
2021,04,11,09,06,2.00
2021,04,11,09,07,2.00
2021,04,11,09,08,2.10
2021,04,11,09,09,2.10
2021,04,11,09,10,2.10
2021,04,11,09,11,2.20
2021,04,11,09,12,2.20
2021,04,11,09,13,2.10
2021,04,11,09,14,2.10
2021,04,11,09,15,2.10
2021,04,11,09,16,2.10
2021,04,11,09,17,2.20
2021,04,11,09,18,2.20
2021,04,11,09,19,2.30
2021,04,11,09,20,2.30
2021,04,11,09,21,2.30
2021,04,11,09,22,2.30
2021,04,11,09,23,2.40
2021,04,11,09,24,2.40
2021,04,11,09,25,2.50
2021,04,11,09,26,2.50
2021,04,11,09,27,2.50
2021,04,11,09,28,2.50
2021,04,11,09,29,2.50
2021,04,11,09,30,2.50
2021,04,11,09,31,2.50
2021,04,11,09,32,2.50
2021,04,11,09,33,2.60
2021,04,11,09,34,2.60
2021,04,11,09,35,2.60
2021,04,11,09,36,2.60
2021,04,11,09,37,2.70
2021,04,11,09,38,2.70
2021,04,11,09,39,2.80
2021,04,11,09,40,2.80
2021,04,11,09,41,2.80
2021,04,11,09,42,2.80
2021,04,11,09,43,2.80
2021,04,11,09,44,2.80
2021,04,11,09,45,2.80
2021,04,11,09,46,2.80
2021,04,11,09,47,2.80
2021,04,11,09,48,2.90
2021,04,11,09,49,2.90
2021,04,11,09,50,3.00
2021,04,11,09,51,3.00
2021,04,11,09,52,3.00
2021,04,11,09,53,3.10
2021,04,11,09,54,3.10
2021,04,11,09,55,3.20
2021,04,11,09,56,3.30
2021,04,11,09,57,3.30
2021,04,11,09,58,3.40
2021,04,11,09,59,3.50
2021,04,11,10,00,3.50
2021,04,11,10,01,3.60
2021,04,11,10,02,3.60
2021,04,11,10,03,3.70
2021,04,11,10,04,3.70
2021,04,11,10,05,3.80
2021,04,11,10,06,3.90
2021,04,11,10,07,4.00
2021,04,11,10,08,4.00
2021,04,11,10,09,4.10
2021,04,11,10,10,4.10
2021,04,11,10,11,4.20
2021,04,11,10,12,4.20
2021,04,11,10,13,4.30
2021,04,11,10,14,4.30
2021,04,11,10,15,4.40
2021,04,11,10,16,4.40
2021,04,11,10,17,4.50
2021,04,11,10,18,4.50
2021,04,11,10,19,4.50
2021,04,11,10,20,4.50
2021,04,11,10,21,4.50
2021,04,11,10,22,4.50
2021,04,11,10,23,4.60
2021,04,11,10,24,4.60
2021,04,11,10,25,4.60
2021,04,11,10,26,4.70
2021,04,11,10,27,4.70
2021,04,11,10,28,4.90
2021,04,11,10,29,5.00
2021,04,11,10,30,5.10
2021,04,11,10,31,5.20
2021,04,11,10,32,5.30
2021,04,11,10,33,5.40
2021,04,11,10,34,5.50
2021,04,11,10,35,5.50
2021,04,11,10,36,5.60
2021,04,11,10,37,5.70
2021,04,11,10,38,5.70
2021,04,11,10,39,5.70
2021,04,11,10,40,5.70
2021,04,11,10,41,5.70
2021,04,11,10,42,5.70
2021,04,11,10,43,5.70
2021,04,11,10,44,5.60
2021,04,11,10,45,5.60
2021,04,11,10,46,5.60
2021,04,11,10,47,5.70
2021,04,11,10,48,5.60
2021,04,11,10,49,5.60
2021,04,11,10,50,5.70
2021,04,11,10,51,5.70
2021,04,11,10,52,5.70
2021,04,11,10,53,5.80
2021,04,11,10,54,5.80
2021,04,11,10,55,5.90
2021,04,11,10,56,5.90
2021,04,11,10,57,5.90
2021,04,11,10,58,5.90
2021,04,11,10,59,5.90
2021,04,11,11,00,6.00
2021,04,11,11,01,6.10
2021,04,11,11,02,6.10
2021,04,11,11,03,6.20
2021,04,11,11,04,6.20
2021,04,11,11,05,6.20
2021,04,11,11,06,6.20
2021,04,11,11,07,6.30
2021,04,11,11,08,6.40
2021,04,11,11,09,6.50
2021,04,11,11,10,6.50
2021,04,11,11,11,6.60
2021,04,11,11,12,6.60
2021,04,11,11,13,6.70
2021,04,11,11,14,6.70
2021,04,11,11,15,6.70
2021,04,11,11,16,6.70
2021,04,11,11,17,6.70
2021,04,11,11,18,6.80
2021,04,11,11,19,6.80
2021,04,11,11,20,6.80
2021,04,11,11,21,6.80
2021,04,11,11,22,6.80
2021,04,11,11,23,6.90
2021,04,11,11,24,6.90
2021,04,11,11,25,7.00
2021,04,11,11,26,7.10
2021,04,11,11,27,7.10
2021,04,11,11,28,7.20
2021,04,11,11,29,7.20
2021,04,11,11,30,7.30
2021,04,11,11,31,7.30
2021,04,11,11,32,7.30
2021,04,11,11,33,7.30
2021,04,11,11,34,7.30
2021,04,11,11,35,7.40
2021,04,11,11,36,7.50
2021,04,11,11,37,7.50
2021,04,11,11,38,7.60
2021,04,11,11,39,7.60
2021,04,11,11,40,7.60
2021,04,11,11,41,7.60
2021,04,11,11,42,7.70
2021,04,11,11,43,7.70
2021,04,11,11,44,7.80
2021,04,11,11,45,7.90
2021,04,11,11,46,7.90
2021,04,11,11,47,7.90
2021,04,11,11,48,8.00
2021,04,11,11,49,8.00
2021,04,11,11,50,8.00
2021,04,11,11,51,8.00
2021,04,11,11,52,8.00
2021,04,11,11,53,8.10
2021,04,11,11,54,8.20
2021,04,11,11,55,8.20
2021,04,11,11,56,8.20
2021,04,11,11,57,8.20
2021,04,11,11,58,8.10
2021,04,11,11,59,8.10
2021,04,11,12,00,8.20
2021,04,11,12,01,8.30
2021,04,11,12,02,8.40
2021,04,11,12,03,8.40
2021,04,11,12,04,8.40
2021,04,11,12,05,8.40
2021,04,11,12,06,8.40
2021,04,11,12,07,8.40
2021,04,11,12,08,8.40
2021,04,11,12,09,8.40
2021,04,11,12,10,8.40
2021,04,11,12,11,8.40
2021,04,11,12,12,8.50
2021,04,11,12,13,8.50
2021,04,11,12,14,8.50
2021,04,11,12,15,8.50
2021,04,11,12,16,8.50
2021,04,11,12,17,8.50
2021,04,11,12,18,8.50
2021,04,11,12,19,8.50
2021,04,11,12,20,8.50
2021,04,11,12,21,8.60
2021,04,11,12,22,8.70
2021,04,11,12,23,8.70
2021,04,11,12,24,8.80
2021,04,11,12,25,8.80
2021,04,11,12,26,8.80
2021,04,11,12,27,8.80
2021,04,11,12,28,8.80
2021,04,11,12,29,8.80
2021,04,11,12,30,8.80
2021,04,11,12,31,8.90
2021,04,11,12,32,8.90
2021,04,11,12,33,8.90
2021,04,11,12,34,9.00
2021,04,11,12,35,9.00
2021,04,11,12,36,9.00
2021,04,11,12,37,9.10
2021,04,11,12,38,9.10
2021,04,11,12,39,9.20
2021,04,11,12,40,9.30
2021,04,11,12,41,9.20
2021,04,11,12,42,9.20
2021,04,11,12,43,9.20
2021,04,11,12,44,9.30
2021,04,11,12,45,9.30
2021,04,11,12,46,9.30
2021,04,11,12,47,9.30
2021,04,11,12,48,9.30
2021,04,11,12,49,9.30
2021,04,11,12,50,9.30
2021,04,11,12,51,9.30
2021,04,11,12,52,9.30
2021,04,11,12,53,9.40
2021,04,11,12,54,9.40
2021,04,11,12,55,9.50
2021,04,11,12,56,9.60
2021,04,11,12,57,9.60
2021,04,11,12,58,9.50
2021,04,11,12,59,9.50
2021,04,11,13,00,9.50
2021,04,11,13,01,9.50
2021,04,11,13,02,9.60
2021,04,11,13,03,9.70
2021,04,11,13,04,9.80
2021,04,11,13,05,9.80
2021,04,11,13,06,9.80
2021,04,11,13,07,9.80
2021,04,11,13,08,9.80
2021,04,11,13,09,9.80
2021,04,11,13,10,9.80
2021,04,11,13,11,9.80
2021,04,11,13,12,9.80
2021,04,11,13,13,9.90
2021,04,11,13,14,9.90
2021,04,11,13,15,9.90
2021,04,11,13,16,9.90
2021,04,11,13,17,10.00
2021,04,11,13,18,10.00
2021,04,11,13,19,10.10
2021,04,11,13,20,10.00
2021,04,11,13,21,10.00
2021,04,11,13,22,10.00
2021,04,11,13,23,10.10
2021,04,11,13,24,10.10
2021,04,11,13,25,10.10
2021,04,11,13,26,10.10
2021,04,11,13,27,10.10
2021,04,11,13,28,10.00
2021,04,11,13,29,10.00
2021,04,11,13,30,9.90
2021,04,11,13,31,9.80
2021,04,11,13,32,9.80
2021,04,11,13,33,9.80
2021,04,11,13,34,9.80
2021,04,11,13,35,9.80
2021,04,11,13,36,9.80
2021,04,11,13,37,9.80
2021,04,11,13,38,9.70
2021,04,11,13,39,9.80
2021,04,11,13,40,9.90
2021,04,11,13,41,9.90
2021,04,11,13,42,10.00
2021,04,11,13,43,10.00
2021,04,11,13,44,10.00
2021,04,11,13,45,10.00
2021,04,11,13,46,10.00
2021,04,11,13,47,10.10
2021,04,11,13,48,10.10
2021,04,11,13,49,10.20
2021,04,11,13,50,10.20
2021,04,11,13,51,10.30
2021,04,11,13,52,10.30
2021,04,11,13,53,10.30
2021,04,11,13,54,10.20
2021,04,11,13,55,10.20
2021,04,11,13,56,10.20
2021,04,11,13,57,10.10
2021,04,11,13,58,10.10
2021,04,11,13,59,10.20
2021,04,11,14,00,10.30
2021,04,11,14,01,10.40
2021,04,11,14,02,10.50
2021,04,11,14,03,10.50
2021,04,11,14,04,10.40
2021,04,11,14,05,10.30
2021,04,11,14,06,10.30
2021,04,11,14,07,10.30
2021,04,11,14,08,10.30
2021,04,11,14,09,10.30
2021,04,11,14,10,10.50
2021,04,11,14,11,10.60
2021,04,11,14,12,10.70
2021,04,11,14,13,10.70
2021,04,11,14,14,10.70
2021,04,11,14,15,10.70
2021,04,11,14,16,10.80
2021,04,11,14,17,10.80
2021,04,11,14,18,10.80
2021,04,11,14,19,10.80
2021,04,11,14,20,10.80
2021,04,11,14,21,10.80
2021,04,11,14,22,10.80
2021,04,11,14,23,10.80
2021,04,11,14,24,10.90
2021,04,11,14,25,10.80
2021,04,11,14,26,10.80
2021,04,11,14,27,10.90
2021,04,11,14,28,10.90
2021,04,11,14,29,11.00
2021,04,11,14,30,11.00
2021,04,11,14,31,11.00
2021,04,11,14,32,11.00
2021,04,11,14,33,11.00
2021,04,11,14,34,10.90
2021,04,11,14,35,10.90
2021,04,11,14,36,10.90
2021,04,11,14,37,10.80
2021,04,11,14,38,10.80
2021,04,11,14,39,10.80
2021,04,11,14,40,10.80
2021,04,11,14,41,10.70
2021,04,11,14,42,10.70
2021,04,11,14,43,10.80
2021,04,11,14,44,10.80
2021,04,11,14,45,10.90
2021,04,11,14,46,10.90
2021,04,11,14,47,10.90
2021,04,11,14,48,10.90
2021,04,11,14,49,10.80
2021,04,11,14,50,10.70
2021,04,11,14,51,10.70
2021,04,11,14,52,10.80
2021,04,11,14,53,10.80
2021,04,11,14,54,10.80
2021,04,11,14,55,10.90
2021,04,11,14,56,10.90
2021,04,11,14,57,10.80
2021,04,11,14,58,10.80
2021,04,11,14,59,10.80
2021,04,11,15,00,10.80
2021,04,11,15,01,10.70
2021,04,11,15,02,10.70
2021,04,11,15,03,10.80
2021,04,11,15,04,10.90
2021,04,11,15,05,11.00
2021,04,11,15,06,11.10
2021,04,11,15,07,11.20
2021,04,11,15,08,11.30
2021,04,11,15,09,11.30
2021,04,11,15,10,11.30
2021,04,11,15,11,11.30
2021,04,11,15,12,11.30
2021,04,11,15,13,11.20
2021,04,11,15,14,11.20
2021,04,11,15,15,11.10
2021,04,11,15,16,11.10
2021,04,11,15,17,11.20
2021,04,11,15,18,11.20
2021,04,11,15,19,11.20
2021,04,11,15,20,11.20
2021,04,11,15,21,11.20
2021,04,11,15,22,11.20
2021,04,11,15,23,11.20
2021,04,11,15,24,11.20
2021,04,11,15,25,11.30
2021,04,11,15,26,11.20
2021,04,11,15,27,11.20
2021,04,11,15,28,11.20
2021,04,11,15,29,11.10
2021,04,11,15,30,11.10
2021,04,11,15,31,11.00
2021,04,11,15,32,11.00
2021,04,11,15,33,11.00
2021,04,11,15,34,11.00
2021,04,11,15,35,11.10
2021,04,11,15,36,11.10
2021,04,11,15,37,11.20
2021,04,11,15,38,11.20
2021,04,11,15,39,11.20
2021,04,11,15,40,11.10
2021,04,11,15,41,11.10
2021,04,11,15,42,11.10
2021,04,11,15,43,11.00
2021,04,11,15,44,10.90
2021,04,11,15,45,10.90
2021,04,11,15,46,10.90
2021,04,11,15,47,10.90
2021,04,11,15,48,10.90
2021,04,11,15,49,10.90
2021,04,11,15,50,10.90
2021,04,11,15,51,10.90
2021,04,11,15,52,10.90
2021,04,11,15,53,10.80
2021,04,11,15,54,10.80
2021,04,11,15,55,10.80
2021,04,11,15,56,10.90
2021,04,11,15,57,10.90
2021,04,11,15,58,11.00
2021,04,11,15,59,11.10
2021,04,11,16,00,11.10
2021,04,11,16,01,11.10
2021,04,11,16,02,11.10
2021,04,11,16,03,11.10
2021,04,11,16,04,11.10
2021,04,11,16,05,11.10
2021,04,11,16,06,11.10
2021,04,11,16,07,11.10
2021,04,11,16,08,11.00
2021,04,11,16,09,10.90
2021,04,11,16,10,10.80
2021,04,11,16,11,10.80
2021,04,11,16,12,10.80
2021,04,11,16,13,10.70
2021,04,11,16,14,10.70
2021,04,11,16,15,10.60
2021,04,11,16,16,10.60
2021,04,11,16,17,10.70
2021,04,11,16,18,10.70
2021,04,11,16,19,10.70
2021,04,11,16,20,10.80
2021,04,11,16,21,10.80
2021,04,11,16,22,10.80
2021,04,11,16,23,10.70
2021,04,11,16,24,10.70
2021,04,11,16,25,10.70
2021,04,11,16,26,10.70
2021,04,11,16,27,10.70
2021,04,11,16,28,10.70
2021,04,11,16,29,10.70
2021,04,11,16,30,10.70
2021,04,11,16,31,10.80
2021,04,11,16,32,10.80
2021,04,11,16,33,10.80
2021,04,11,16,34,10.80
2021,04,11,16,35,10.90
2021,04,11,16,36,10.90
2021,04,11,16,37,10.90
2021,04,11,16,38,10.90
2021,04,11,16,39,11.00
2021,04,11,16,40,11.00
2021,04,11,16,41,11.00
2021,04,11,16,42,11.00
2021,04,11,16,43,10.90
2021,04,11,16,44,10.80
2021,04,11,16,45,10.80
2021,04,11,16,46,10.80
2021,04,11,16,47,10.80
2021,04,11,16,48,10.80
2021,04,11,16,49,10.80
2021,04,11,16,50,10.80
2021,04,11,16,51,10.80
2021,04,11,16,52,10.80
2021,04,11,16,53,10.80
2021,04,11,16,54,10.80
2021,04,11,16,55,10.80
2021,04,11,16,56,10.80
2021,04,11,16,57,10.80
2021,04,11,16,58,10.80
2021,04,11,16,59,10.80
2021,04,11,17,00,10.80
2021,04,11,17,01,10.80
2021,04,11,17,02,10.90
2021,04,11,17,03,10.90
2021,04,11,17,04,11.00
2021,04,11,17,05,11.00
2021,04,11,17,06,11.00
2021,04,11,17,07,11.00
2021,04,11,17,08,11.00
2021,04,11,17,09,11.00
2021,04,11,17,10,10.90
2021,04,11,17,11,10.90
2021,04,11,17,12,10.90
2021,04,11,17,13,10.80
2021,04,11,17,14,10.80
2021,04,11,17,15,10.70
2021,04,11,17,16,10.70
2021,04,11,17,17,10.70
2021,04,11,17,18,10.70
2021,04,11,17,19,10.70
2021,04,11,17,20,10.70
2021,04,11,17,21,10.70
2021,04,11,17,22,10.70
2021,04,11,17,23,10.70
2021,04,11,17,24,10.70
2021,04,11,17,25,10.70
2021,04,11,17,26,10.70
2021,04,11,17,27,10.70
2021,04,11,17,28,10.80
2021,04,11,17,29,10.80
2021,04,11,17,30,10.90
2021,04,11,17,31,11.00
2021,04,11,17,32,11.00
2021,04,11,17,33,11.10
2021,04,11,17,34,11.10
2021,04,11,17,35,11.20
2021,04,11,17,36,11.20
2021,04,11,17,37,11.20
2021,04,11,17,38,11.20
2021,04,11,17,39,11.20
2021,04,11,17,40,11.10